• In Uzbekistan
  • List of Countries
  • For 7 days
  • Water Temperature
  • Satellite Maps
  • Weather Map
  • Weather Widgets
  • user-avatar
    Login

    Hourly Weather Sabha

    Today, 26 April, Friday

    Time Temperature Precipitation Wind Pressure Humidity
    00:00 +34°C° 0 mm 2 mps 723 mmHg 12%
    01:00 +34°C° 0 mm 3 mps 723 mmHg 12%
    02:00 +33°C° 0 mm 3 mps 723 mmHg 12%
    03:00 +31°C° 0 mm 3 mps 723 mmHg 12%
    04:00 +31°C° 0 mm 3 mps 723 mmHg 13%
    05:00 +31°C° 0 mm 3 mps 723 mmHg 12%
    06:00 +31°C° 0 mm 3 mps 723 mmHg 11%
    07:00 +32°C° 0 mm 4 mps 724 mmHg 8%
    08:00 +34°C° 0 mm 5 mps 724 mmHg 7%
    09:00 +36°C° 0 mm 5 mps 724 mmHg 6%
    10:00 +39°C° 0 mm 5 mps 725 mmHg 5%
    11:00 +40°C° 0 mm 5 mps 724 mmHg 5%
    12:00 +41°C° 0 mm 4 mps 724 mmHg 6%
    13:00 +42°C° 0 mm 3 mps 724 mmHg 6%
    14:00 +42°C° 0 mm 3 mps 723 mmHg 6%
    15:00 +41°C° 0 mm 2 mps 723 mmHg 6%
    16:00 +42°C° 0 mm 2 mps 722 mmHg 6%
    17:00 +42°C° 0 mm 3 mps 722 mmHg 6%
    18:00 +40°C° 0 mm 3 mps 722 mmHg 7%
    19:00 +39°C° 0 mm 3 mps 722 mmHg 7%
    20:00 +38°C° 0 mm 3 mps 722 mmHg 8%
    21:00 +37°C° 0 mm 3 mps 722 mmHg 8%
    22:00 +36°C° 0 mm 3 mps 723 mmHg 9%
    23:00 +35°C° 0 mm 3 mps 723 mmHg 9%

    Tomorrow, 27 April, Saturday

    Time Temperature Precipitation Wind Pressure Humidity
    00:00 +34°C° 0 mm 3 mps 722 mmHg 10%
    01:00 +33°C° 0 mm 4 mps 722 mmHg 10%
    02:00 +33°C° 0 mm 4 mps 722 mmHg 12%
    03:00 +32°C° 0 mm 5 mps 722 mmHg 13%
    04:00 +30°C° 0 mm 6 mps 722 mmHg 15%
    05:00 +30°C° 0 mm 6 mps 722 mmHg 16%
    06:00 +30°C° 0 mm 6 mps 722 mmHg 17%
    07:00 +30°C° 0 mm 6 mps 722 mmHg 19%
    08:00 +32°C° 0 mm 6 mps 723 mmHg 16%
    09:00 +34°C° 0 mm 6 mps 723 mmHg 14%
    10:00 +36°C° 0 mm 6 mps 723 mmHg 11%
    11:00 +37°C° 0 mm 5 mps 723 mmHg 11%
    12:00 +38°C° 0 mm 4 mps 723 mmHg 10%
    13:00 +40°C° 0 mm 4 mps 723 mmHg 9%
    14:00 +40°C° 0 mm 4 mps 722 mmHg 8%
    15:00 +40°C° 0 mm 4 mps 722 mmHg 8%
    16:00 +41°C° 0 mm 5 mps 721 mmHg 8%
    17:00 +40°C° 0 mm 6 mps 721 mmHg 9%
    18:00 +38°C° 0 mm 8 mps 721 mmHg 10%
    19:00 +37°C° 0 mm 10 mps 721 mmHg 11%
    20:00 +36°C° 0 mm 10 mps 722 mmHg 12%
    21:00 +34°C° 0 mm 10 mps 722 mmHg 14%
    22:00 +33°C° 0 mm 11 mps 723 mmHg 15%
    23:00 +32°C° 0 mm 10 mps 723 mmHg 20%

    Day after tomorrow, 28 April, Sunday

    Time Temperature Precipitation Wind Pressure Humidity
    00:00 +29°C° 0 mm 10 mps 722 mmHg 25%
    01:00 +28°C° 0 mm 9 mps 722 mmHg 30%
    02:00 +27°C° 0 mm 9 mps 722 mmHg 30%
    03:00 +26°C° 0 mm 9 mps 722 mmHg 31%
    04:00 +26°C° 0 mm 9 mps 723 mmHg 32%
    05:00 +24°C° 0 mm 9 mps 723 mmHg 33%
    06:00 +24°C° 0 mm 9 mps 723 mmHg 34%
    07:00 +23°C° 0 mm 9 mps 723 mmHg 35%
    08:00 +24°C° 0 mm 9 mps 723 mmHg 33%
    09:00 +26°C° 0 mm 10 mps 724 mmHg 31%
    10:00 +27°C° 0 mm 10 mps 724 mmHg 29%
    11:00 +28°C° 0 mm 9 mps 724 mmHg 26%
    12:00 +31°C° 0 mm 8 mps 723 mmHg 23%
    13:00 +32°C° 0 mm 7 mps 723 mmHg 19%
    14:00 +33°C° 0 mm 7 mps 723 mmHg 17%
    15:00 +34°C° 0 mm 6 mps 722 mmHg 16%
    16:00 +35°C° 0 mm 6 mps 722 mmHg 14%
    17:00 +34°C° 0 mm 6 mps 722 mmHg 16%
    18:00 +33°C° 0 mm 7 mps 722 mmHg 18%
    19:00 +32°C° 0 mm 8 mps 722 mmHg 20%
    20:00 +29°C° 0 mm 8 mps 722 mmHg 24%
    21:00 +28°C° 0 mm 9 mps 723 mmHg 28%
    22:00 +27°C° 0 mm 9 mps 723 mmHg 32%
    23:00 +26°C° 0 mm 9 mps 723 mmHg 32%

    29 April, Monday

    Time Temperature Precipitation Wind Pressure Humidity
    00:00 +26°C° 0 mm 8 mps 723 mmHg 33%
    01:00 +24°C° 0 mm 8 mps 723 mmHg 33%
    02:00 +24°C° 0 mm 8 mps 722 mmHg 35%
    03:00 +23°C° 0 mm 8 mps 722 mmHg 37%
    04:00 +23°C° 0 mm 8 mps 722 mmHg 39%
    05:00 +22°C° 0 mm 8 mps 722 mmHg 41%
    06:00 +22°C° 0 mm 8 mps 722 mmHg 42%
    07:00 +22°C° 0 mm 8 mps 723 mmHg 43%
    08:00 +23°C° 0 mm 8 mps 723 mmHg 40%
    09:00 +24°C° 0 mm 7 mps 723 mmHg 36%
    10:00 +26°C° 0 mm 7 mps 724 mmHg 32%
    11:00 +28°C° 0.1 mm 6 mps 723 mmHg 29%
    12:00 +30°C° 0.1 mm 5 mps 723 mmHg 26%
    13:00 +32°C° 0.1 mm 4 mps 723 mmHg 23%
    14:00 +33°C° 0.1 mm 4 mps 722 mmHg 22%
    15:00 +33°C° 0.1 mm 4 mps 721 mmHg 21%
    16:00 +34°C° 0.1 mm 5 mps 721 mmHg 20%
    17:00 +33°C° 0 mm 4 mps 721 mmHg 20%
    18:00 +33°C° 0 mm 4 mps 721 mmHg 21%
    19:00 +32°C° 0 mm 4 mps 721 mmHg 21%
    20:00 +30°C° 0 mm 5 mps 721 mmHg 21%
    21:00 +30°C° 0 mm 7 mps 722 mmHg 22%
    22:00 +29°C° 0 mm 8 mps 722 mmHg 22%
    23:00 +28°C° 0.1 mm 6 mps 722 mmHg 24%

    30 April, Tuesday

    Time Temperature Precipitation Wind Pressure Humidity
    00:00 +27°C° 0.1 mm 5 mps 722 mmHg 25%
    01:00 +27°C° 0.1 mm 4 mps 722 mmHg 27%
    02:00 +26°C° 0.1 mm 5 mps 721 mmHg 27%
    03:00 +26°C° 0.1 mm 5 mps 721 mmHg 28%
    04:00 +26°C° 0.1 mm 6 mps 721 mmHg 28%
    05:00 +24°C° 0 mm 7 mps 721 mmHg 28%
    06:00 +24°C° 0 mm 8 mps 721 mmHg 28%
    07:00 +24°C° 0 mm 9 mps 721 mmHg 29%
    08:00 +27°C° 0 mm 8 mps 722 mmHg 26%
    09:00 +28°C° 0 mm 8 mps 722 mmHg 24%
    10:00 +30°C° 0 mm 7 mps 723 mmHg 22%
    11:00 +32°C° 0.1 mm 6 mps 722 mmHg 21%
    12:00 +33°C° 0.1 mm 5 mps 722 mmHg 19%
    13:00 +34°C° 0.1 mm 4 mps 721 mmHg 18%
    14:00 +35°C° 0 mm 4 mps 721 mmHg 18%
    15:00 +35°C° 0 mm 3 mps 720 mmHg 17%
    16:00 +36°C° 0 mm 3 mps 720 mmHg 17%
    17:00 +35°C° 0 mm 4 mps 719 mmHg 18%
    18:00 +35°C° 0 mm 4 mps 719 mmHg 19%
    19:00 +34°C° 0 mm 5 mps 719 mmHg 20%
    20:00 +33°C° 0.2 mm 6 mps 720 mmHg 21%
    21:00 +32°C° 0.2 mm 7 mps 720 mmHg 21%
    22:00 +31°C° 0.2 mm 8 mps 720 mmHg 22%
    23:00 +29°C° 0.3 mm 7 mps 720 mmHg 24%

    1 May, Wednesday

    Time Temperature Precipitation Wind Pressure Humidity
    00:00 +28°C° 0.3 mm 6 mps 720 mmHg 27%
    01:00 +27°C° 0.3 mm 6 mps 720 mmHg 30%
    02:00 +27°C° 0 mm 6 mps 720 mmHg 29%
    03:00 +26°C° 0 mm 6 mps 720 mmHg 29%
    04:00 +26°C° 0 mm 7 mps 720 mmHg 29%
    05:00 +26°C° 0.1 mm 6 mps 720 mmHg 31%
    06:00 +24°C° 0.1 mm 6 mps 720 mmHg 32%
    07:00 +24°C° 0.1 mm 6 mps 721 mmHg 34%
    08:00 +27°C° 0 mm 6 mps 721 mmHg 31%
    09:00 +28°C° 0 mm 5 mps 721 mmHg 27%
    10:00 +30°C° 0 mm 5 mps 721 mmHg 23%
    11:00 +32°C° 0 mm 4 mps 721 mmHg 22%
    12:00 +34°C° 0 mm 4 mps 720 mmHg 20%
    13:00 +35°C° 0 mm 3 mps 720 mmHg 18%
    14:00 +35°C° 0 mm 3 mps 720 mmHg 18%
    15:00 +36°C° 0 mm 3 mps 719 mmHg 17%
    16:00 +36°C° 0 mm 2 mps 719 mmHg 17%
    17:00 +36°C° 0 mm 2 mps 719 mmHg 17%
    18:00 +35°C° 0 mm 3 mps 720 mmHg 18%
    19:00 +35°C° 0 mm 3 mps 720 mmHg 18%
    20:00 +34°C° 0 mm 3 mps 720 mmHg 19%
    21:00 +34°C° 0 mm 3 mps 721 mmHg 20%
    22:00 +32°C° 0 mm 2 mps 721 mmHg 21%
    23:00 +31°C° 0 mm 2 mps 721 mmHg 22%
    Show more